C/2016 N6 ( PanSTARRS )

Japanese version
Home page
Updated on December 31, 2016

---------------------------------------------------------------------

* Profile

Discovery Date July 14, 2016
Magnitude 20.7 mag
Discoverer Pan-STARRS 1 telescope (Haleakala)

* Pictures

* Orbital Elements

Epoch 2018 July 21.0 TT = JDT 2458320.5
T 2018 July 18.17676 TT                                 MPCW
q   2.6687353            (2000.0)            P               Q
z  +0.0004725      Peri.  162.80924     -0.53327484     +0.08482099
 +/-0.0000097      Node   298.97200     +0.61787177     +0.71863749
e   0.9987390      Incl.  105.82975     +0.57779963     -0.69019241
From 179 observations 2016 June 27-Oct. 29, mean residual 0".4.

* Finding Charts

* Magnitudes Graph

        m1 = 7.0 + 5 log d + 10.0 log r

---------------------------------------------------------------------

The orbital elements are published on M.P.E.C. 2016-V116.
The charts are made with StellaNavigator Ver.10 (AstroArts).
The magnitudes graphs are made with Comet for Windows.

---------------------------------------------------------------------

Copyright(C) Seiichi Yoshida (comet@aerith.net). All rights reserved.